Location: Aula-Vintri
(58.3875°N, 22.4322°E)
Time: 22:30:20
(UTC+00:00)

Cosmos 489 Rocket - Pass Details

Date: 13 October 2019
Orbit: 953 x 983 km, 74.0° (Epoch: 14 November)

Event Time Altitude Azimuth Distance (km) Brightness Sun altitude
Rises 18:18:05 0° 203° (SSW) 3,627 7.5 -22.3°
Reaches altitude 10° 18:20:36 10° 202° (SSW) 2,682 6.8 -22.6°
Maximum altitude 18:26:48 79° 117° (ESE) 977 4.3 -23.3°
Drops below altitude 10° 18:33:02 10° 32° (NNE) 2,695 6.7 -24.1°
Sets 18:35:34 0° 31° (NNE) 3,645 7.5 -24.4°
